[[{"header":{"parameterUnit":"m.s-1","parameterCategory":1,"la1":30.2991,"la2":30.254,"lo1":-89.0895,"lo2":-89.0444,"dy":0.0017,"dx":0.0017,"nx":28,"ny":28,"refTime":"2024-08-13T21:00:00:Z","depth":0,"parameterNumber":2,"parameterNumberName":"U-component_of_WINDS"},"data":[0,0,0,0,0,0,0,0,0,0,0,0,0,0,0,0,0,0,0,0,0,0,0,0,0,0,0,0,0,0,0,0,0,0,0,0,0,0,0,0,0,0,0,0,0,0,0,0,0,0,0,0,0,0,0,0,0,0,2.0624,2.0625,0,2.077,2.0772,2.0774,2.081,2.0809,2.0808,2.0807,2.0956,2.0961,2.0965,0,0,0,0,0,0,0,0,0,0,0,0,0,2.0373,2.0377,2.0624,2.0625,2.0627,2.077,2.0772,2.0774,2.081,2.0809,2.0808,2.0807,2.0954,2.096,2.0966,0,0,0,0,0,0,0,0,0,0,0,0,0,2.0497,2.0379,2.0623,2.0663,2.0668,2.077,2.0772,2.0775,2.081,2.0809,2.0808,2.0806,2.0953,2.096,2.0967,2.104,0,0,2.0989,2.0992,0,0,0,0,0,0,0,0,2.049,2.0506,2.0655,2.066,2.0666,2.0771,2.0738,2.0863,2.0811,2.0756,2.0807,2.0806,2.0895,2.0907,2.0938,2.1047,2.1053,2.099,2.0994,2.0997,2.0999,0,0,0,0,0,0,0,2.0481,2.05,2.0682,2.0657,2.0664,2.0672,2.0688,2.0762,2.0832,2.0761,2.0764,2.0781,2.0898,2.0931,2.0941,2.1055,2.0989,2.0996,2.1,2.1003,2.1231,2.1232,0,0,0,0,0,0,2.0466,2.0493,2.0677,2.0686,2.0573,2.0678,2.0696,2.0738,2.0831,2.0844,2.0782,2.0782,2.0919,2.0933,2.0947,2.1038,2.0997,2.1004,2.1008,2.1229,2.1231,2.1233,0,0,0,0,0,0,2.0461,2.0482,2.0671,2.059,2.0615,2.0684,2.0731,2.0742,2.0775,2.0847,2.0859,2.0802,2.0918,2.0937,2.1016,2.1043,2.1007,2.1014,2.1227,2.123,2.1232,2.122,0,0,0,0,0,0,2.0453,2.048,2.0509,2.0591,2.0619,2.0738,2.0733,2.0746,2.0787,2.0789,2.087,2.0882,2.0919,2.1005,2.1023,2.1053,2.1019,2.1225,2.1228,2.1231,2.1218,2.1222,2.1225,0,0,0,0,0,2.0444,2.0499,2.051,2.0532,2.0657,2.074,2.0756,2.0798,2.0789,2.0818,2.0865,2.0879,2.1038,2.1013,2.1034,2.1066,2.1223,2.1227,2.1231,2.1217,2.1221,2.1225,0,0,0,0,0,0,2.0418,2.0511,2.0524,2.0607,2.0665,2.0746,2.0784,2.0801,2.0863,2.0861,2.091,2.0928,2.1005,2.1043,2.1014,2.1141,2.113,2.1139,2.1113,2.1117,2.1121,2.1109,2.1025,0,0,0,0,0,2.0422,2.0483,2.056,2.0626,2.0655,2.0714,2.0752,2.0779,2.0842,2.0866,2.0919,2.0978,2.1041,2.1082,2.1144,2.1225,2.1242,2.1257,2.126,2.1262,2.1268,2.1313,2.132,2.1245,2.1245,2.1245,0,0,2.0431,2.0489,2.0524,2.0622,2.0671,2.0732,2.0735,2.0799,2.0844,2.0876,2.0954,2.0995,2.1064,2.1144,2.1182,2.1179,2.1293,2.1267,2.1269,2.1274,2.1318,2.1325,2.1331,2.1248,2.1248,2.1247,0,0,2.0478,2.0528,2.0589,2.0637,2.0711,2.075,2.0764,2.0843,2.0871,2.095,2.0975,2.1029,2.1137,2.1186,2.1224,2.129,2.1305,2.1309,2.1326,2.1369,2.1375,2.138,2.1403,2.141,2.1315,2.1315,2.1315,0,2.0479,2.0572,2.0617,2.0681,2.0723,2.0755,2.0816,2.0861,2.095,2.0978,2.0973,2.111,2.1159,2.125,2.1266,2.1297,2.1314,2.1299,2.137,2.1376,2.1382,2.1404,2.1412,2.1315,2.1315,2.1315,2.1315,0,2.057,2.0634,2.0674,2.076,2.0807,2.0869,2.0922,2.0964,2.0988,2.1027,2.1107,2.1168,2.1242,2.1266,2.129,2.1361,2.1357,2.1361,2.1351,2.1388,2.141,2.1419,2.1315,2.1315,2.1315,2.1315,0,0,2.0603,2.0714,2.0728,2.0767,2.0851,2.0901,2.0964,2.1038,2.1072,2.1133,2.1187,2.1278,2.1282,2.1326,2.1355,2.1393,2.144,2.1392,2.1394,2.1398,2.1521,2.1517,2.1526,2.1451,2.1453,2.1454,2.1515,0,2.0659,2.0774,2.0816,2.0909,2.0969,2.1001,2.1055,2.1112,2.1151,2.1207,2.1249,2.1313,2.1314,2.134,2.1379,2.1426,2.1465,2.1422,2.15,2.1502,2.148,2.1538,2.1533,2.1588,2.1524,2.1525,2.1527,0,2.074,2.0802,2.0902,2.0978,2.1005,2.1053,2.1124,2.1177,2.1242,2.1268,2.1317,2.1344,2.141,2.1397,2.1489,2.1459,2.1493,2.1521,2.1524,2.1532,2.1516,2.1546,2.1607,2.1614,2.154,2.1539,2.1538,0,2.0753,2.0862,2.0935,2.0968,2.106,2.1093,2.1132,2.1196,2.1237,2.1299,2.1326,2.1395,2.1432,2.1484,2.1529,2.1515,2.1616,2.1607,2.1638,2.1637,2.1657,2.1655,2.1723,2.1681,2.1681,2.1681,2.1681,0,2.081,2.087,2.0942,2.0987,2.1055,2.1103,2.1168,2.1209,2.1266,2.1319,2.1351,2.14,2.1456,2.1512,2.1547,2.1617,2.1634,2.1656,2.1664,2.1653,2.165,2.1675,2.1672,2.1683,2.1683,2.1682,2.1682,0,2.0835,2.0887,2.0969,2.1049,2.107,2.1116,2.1184,2.1229,2.1269,2.1336,2.1354,2.1418,2.1485,2.1535,2.1623,2.1646,2.1721,2.173,2.1699,2.1703,2.1731,2.1728,2.1817,2.1831,2.1781,2.1781,2.1781,0,2.0868,2.0915,2.1,2.1038,2.1078,2.1139,2.1181,2.1231,2.1274,2.1351,2.1386,2.1457,2.1515,2.1622,2.1675,2.1742,2.1753,2.1779,2.1763,2.1749,2.1752,2.1748,2.1752,2.1781,2.1781,2.1782,2.1782,0,2.092,2.0944,2.1004,2.1074,2.1124,2.1182,2.1239,2.1268,2.1328,2.1374,2.1444,2.149,2.158,2.1648,2.1721,2.1761,2.1781,2.1787,2.1798,2.1785,2.1765,2.1775,2.1704,2.1784,2.1784,2.1784,2.1784,2.1784,2.095,2.0992,2.1059,2.1126,2.1174,2.1227,2.1273,2.132,2.1379,2.1456,2.1482,2.1554,2.1618,2.1717,2.1758,2.1815,2.1814,2.183,2.1833,2.1836,2.1835,2.1757,2.1828,2.1828,2.1828,2.1828,2.1828,0,2.1003,2.1047,2.1108,2.1188,2.124,2.1256,2.1321,2.1363,2.1426,2.1484,2.1542,2.1622,2.1689,2.1748,2.1817,2.1851,2.1862,2.1868,2.1865,2.1874,2.1832,2.1815,2.1858,2.1858,2.1858,2.1858,2.1858,2.1858,2.1036,2.1109,2.114,2.1237,2.1282,2.1353,2.1388,2.1437,2.1484,2.1572,2.1629,2.1667,2.1725,2.1799,2.1861,2.1877,2.19,2.1904,2.1921,2.1881,2.1877,2.1873,2.1858,2.1909,2.1909,2.1958,2.1959,2.1959]},{"header":{"parameterUnit":"m.s-1","parameterCategory":1,"la1":30.2991,"la2":30.254,"lo1":-89.0895,"lo2":-89.0444,"dy":0.0017,"dx":0.0017,"nx":28,"ny":28,"refTime":"2024-08-13T21:00:00:Z","depth":0,"parameterNumber":3,"parameterNumberName":"V-component_of_WINDS"},"data":[0,0,0,0,0,0,0,0,0,0,0,0,0,0,0,0,0,0,0,0,0,0,0,0,0,0,0,0,0,0,0,0,0,0,0,0,0,0,0,0,0,0,0,0,0,0,0,0,0,0,0,0,0,0,0,0,0,0,4.4251,4.4251,0,4.4218,4.4218,4.4217,4.4152,4.4151,4.4149,4.4148,4.4115,4.4116,4.4116,0,0,0,0,0,0,0,0,0,0,0,0,0,4.426,4.4261,4.4251,4.4251,4.4251,4.4218,4.4218,4.4217,4.4152,4.415,4.4149,4.4147,4.4115,4.4116,4.4116,0,0,0,0,0,0,0,0,0,0,0,0,0,4.4245,4.4261,4.4251,4.4214,4.421,4.4218,4.4218,4.4217,4.4152,4.415,4.4149,4.4147,4.4115,4.4115,4.4116,4.4158,0,0,4.4117,4.4118,0,0,0,0,0,0,0,0,4.4246,4.4245,4.422,4.4217,4.4213,4.4187,4.4209,4.4197,4.4153,4.4174,4.4148,4.4146,4.4141,4.4139,4.4137,4.4156,4.4155,4.4117,4.4118,4.4118,4.4118,0,0,0,0,0,0,0,4.4247,4.4246,4.4238,4.422,4.4215,4.42,4.4195,4.4206,4.4169,4.4172,4.4168,4.4164,4.4138,4.4137,4.4136,4.4154,4.4117,4.4118,4.4118,4.4118,4.4206,4.4208,0,0,0,0,0,0,4.4253,4.4247,4.4239,4.4237,4.4225,4.4201,4.4196,4.4197,4.4169,4.4162,4.4166,4.4162,4.4137,4.4135,4.4134,4.4181,4.4118,4.4118,4.4119,4.4204,4.4206,4.4208,0,0,0,0,0,0,4.4254,4.4253,4.4241,4.4241,4.4238,4.4203,4.4205,4.4198,4.4196,4.4164,4.4157,4.4171,4.4135,4.4134,4.4152,4.4179,4.4119,4.4119,4.4201,4.4205,4.4207,4.4275,0,0,0,0,0,0,4.4254,4.4254,4.4269,4.4242,4.4238,4.4259,4.4206,4.4198,4.4197,4.419,4.4167,4.4161,4.4134,4.4152,4.4153,4.4178,4.412,4.4199,4.4203,4.4206,4.427,4.428,4.4288,0,0,0,0,0,4.4255,4.4289,4.427,4.4269,4.4256,4.426,4.4258,4.4226,4.4199,4.4214,4.4194,4.4162,4.4176,4.4154,4.4155,4.4181,4.4197,4.4202,4.4206,4.4266,4.4278,4.4288,0,0,0,0,0,0,4.4321,4.4285,4.4263,4.429,4.4279,4.4249,4.4267,4.4239,4.4236,4.423,4.419,4.4186,4.4209,4.4197,4.4174,4.422,4.4181,4.4186,4.4227,4.4238,4.4247,4.4249,4.412,0,0,0,0,0,4.4339,4.4345,4.4313,4.434,4.4335,4.4303,4.4303,4.4279,4.4266,4.4261,4.4242,4.4231,4.4233,4.4235,4.4235,4.4268,4.4262,4.4287,4.4296,4.4303,4.4308,4.4324,4.4334,4.4223,4.4223,4.4223,0,0,4.4375,4.4356,4.4363,4.4353,4.4341,4.4348,4.4299,4.4309,4.4314,4.4262,4.4278,4.4264,4.4249,4.4276,4.4286,4.4266,4.4337,4.4309,4.4315,4.4315,4.433,4.434,4.435,4.4226,4.4226,4.4225,0,0,4.4445,4.4432,4.4452,4.4442,4.4425,4.4403,4.4408,4.4383,4.4372,4.4387,4.4349,4.4355,4.4359,4.435,4.4346,4.4413,4.4384,4.4415,4.4461,4.4478,4.4487,4.4494,4.4518,4.4527,4.4419,4.442,4.442,0,4.4493,4.4502,4.4467,4.4479,4.4476,4.4429,4.445,4.4442,4.4426,4.4425,4.4403,4.4407,4.4394,4.4417,4.4434,4.4432,4.4437,4.4416,4.4488,4.4496,4.4502,4.4524,4.4533,4.4423,4.4423,4.4422,4.4422,0,4.4561,4.4568,4.4587,4.4572,4.4571,4.4588,4.4556,4.4559,4.4536,4.4516,4.4533,4.4515,4.4511,4.4515,4.4492,4.4535,4.4523,4.4495,4.4456,4.4517,4.4537,4.4545,4.4429,4.4427,4.4426,4.4425,0,0,4.4671,4.4637,4.4645,4.4637,4.4616,4.4621,4.4636,4.4631,4.4634,4.4626,4.4637,4.4642,4.4616,4.4611,4.4587,4.4602,4.4656,4.4572,4.4571,4.4588,4.4702,4.4722,4.4733,4.4637,4.4639,4.464,4.4703,0,4.4736,4.4758,4.4727,4.4757,4.4763,4.4719,4.4732,4.4721,4.4703,4.4706,4.4687,4.4691,4.4657,4.4654,4.4667,4.4647,4.4679,4.4642,4.4647,4.4648,4.4651,4.4743,4.4765,4.4825,4.4711,4.4712,4.4713,0,4.4814,4.4808,4.4838,4.4815,4.4816,4.4828,4.4821,4.4825,4.4811,4.4798,4.4793,4.4764,4.4777,4.474,4.4758,4.4734,4.4734,4.4725,4.4726,4.4725,4.4683,4.4744,4.4844,4.4853,4.4725,4.4724,4.4723,0,4.489,4.489,4.4908,4.4904,4.4877,4.4886,4.4876,4.486,4.4859,4.4854,4.4853,4.485,4.4847,4.4846,4.4817,4.4792,4.4838,4.4798,4.4827,4.4828,4.4837,4.4837,4.4939,4.484,4.484,4.4839,4.4839,0,4.4965,4.4985,4.4942,4.4953,4.4974,4.4939,4.4961,4.4946,4.4933,4.494,4.4903,4.4911,4.4873,4.4877,4.4855,4.4873,4.4873,4.4862,4.4856,4.4865,4.4866,4.4864,4.4858,4.4842,4.4841,4.4841,4.484,0,4.5053,4.5025,4.5042,4.5015,4.5009,4.5026,4.5003,4.5013,4.4993,4.5003,4.5004,4.4973,4.4976,4.4948,4.4945,4.493,4.4958,4.4945,4.4963,4.4958,4.4988,4.4985,4.5091,4.5103,4.4997,4.4998,4.4999,0,4.5102,4.5116,4.5092,4.5094,4.5085,4.5089,4.5088,4.5054,4.5055,4.5041,4.5052,4.5052,4.5049,4.5056,4.5034,4.5032,4.5018,4.5055,4.5018,4.5026,4.5018,4.5017,4.5018,4.5063,4.5064,4.5065,4.5066,0,4.5192,4.5178,4.5177,4.5173,4.5172,4.5167,4.5159,4.5163,4.5127,4.5129,4.5132,4.513,4.5128,4.5128,4.5122,4.5111,4.5083,4.5079,4.5085,4.5094,4.5103,4.5098,4.4983,4.5076,4.5075,4.5074,4.5074,4.5073,4.5261,4.5272,4.5256,4.5257,4.5248,4.5242,4.5249,4.523,4.5232,4.5226,4.5207,4.5213,4.5199,4.5188,4.518,4.5184,4.5166,4.5176,4.5178,4.518,4.5186,4.5103,4.5183,4.5183,4.5183,4.5182,4.5182,0,4.5349,4.5336,4.5338,4.5328,4.5329,4.5302,4.5292,4.5295,4.5301,4.529,4.5289,4.5292,4.5292,4.527,4.5268,4.5275,4.5262,4.5276,4.5274,4.5272,4.5202,4.5197,4.5286,4.5286,4.5286,4.5286,4.5286,4.5286,4.5394,4.541,4.5394,4.5406,4.5394,4.5399,4.5395,4.5389,4.5381,4.5385,4.5385,4.5371,4.5356,4.5352,4.5352,4.5345,4.5346,4.5364,4.5353,4.5288,4.5277,4.5268,4.5262,4.5364,4.5364,4.5422,4.5423,4.5423]}]]